[[{"header":{"parameterUnit":"m.s-1","parameterCategory":2,"la1":30.2991,"la2":30.254,"lo1":-89.0895,"lo2":-89.0444,"dy":0.0017,"dx":0.0017,"nx":28,"ny":28,"refTime":"2025-11-16T09:00:00:Z","depth":"0","parameterNumber":2,"parameterNumberName":"U-component_of_CURRENTS"},"data":[0,0,0,0,0,0,0,0,0,0,0,0,0,0,0,0,0,0,0,0,0,0,0,0,0,0,0,0,0,0,0,0,0,0,0,0,0,0,0,0,0,0,0,0,0,0,0,0,0,0,0,0,0,0,0,0,0,0,-0.0979,-0.0981,0,-0.1077,-0.1077,-0.1078,-0.1103,-0.1103,-0.1103,-0.1103,-0.1024,-0.1022,-0.102,0,0,0,0,0,0,0,0,0,0,0,0,0,-0.0869,-0.087,-0.0979,-0.0981,-0.0983,-0.1077,-0.1077,-0.1078,-0.1103,-0.1103,-0.1103,-0.1103,-0.1025,-0.1022,-0.1019,0,0,0,0,0,0,0,0,0,0,0,0,0,-0.093,-0.087,-0.0979,-0.1012,-0.1016,-0.1076,-0.1077,-0.1078,-0.1103,-0.1103,-0.1103,-0.1103,-0.1025,-0.1022,-0.1019,-0.0999,0,0,-0.1009,-0.1008,0,0,0,0,0,0,0,0,-0.0926,-0.0933,-0.1005,-0.101,-0.1015,-0.1084,-0.101,-0.1045,-0.1103,-0.1063,-0.1103,-0.1103,-0.1032,-0.1028,-0.1039,-0.0995,-0.0991,-0.1009,-0.1007,-0.1006,-0.1005,0,0,0,0,0,0,0,-0.0922,-0.0929,-0.1011,-0.1007,-0.1013,-0.1041,-0.1048,-0.1017,-0.1037,-0.1067,-0.107,-0.1092,-0.1032,-0.1043,-0.1037,-0.099,-0.1009,-0.1006,-0.1004,-0.1003,-0.0957,-0.0958,0,0,0,0,0,0,-0.0921,-0.0925,-0.1008,-0.1015,-0.0977,-0.1043,-0.1051,-0.1056,-0.1042,-0.1043,-0.1092,-0.1093,-0.1048,-0.1041,-0.1034,-0.0975,-0.1006,-0.1003,-0.1001,-0.0956,-0.0957,-0.0958,0,0,0,0,0,0,-0.0918,-0.0926,-0.1004,-0.0978,-0.0991,-0.1045,-0.1051,-0.1058,-0.1069,-0.1064,-0.1061,-0.1096,-0.1048,-0.1039,-0.1018,-0.0973,-0.1001,-0.0998,-0.0956,-0.0957,-0.0958,-0.0876,0,0,0,0,0,0,-0.0914,-0.0924,-0.0906,-0.0978,-0.0993,-0.1011,-0.1052,-0.106,-0.1086,-0.1088,-0.1066,-0.106,-0.1047,-0.1023,-0.1015,-0.0969,-0.0996,-0.0955,-0.0956,-0.0957,-0.0878,-0.0874,-0.0871,0,0,0,0,0,-0.0909,-0.0874,-0.0904,-0.0914,-0.0972,-0.101,-0.1018,-0.1054,-0.1086,-0.1068,-0.1084,-0.106,-0.1026,-0.1021,-0.1011,-0.0963,-0.0954,-0.0956,-0.0957,-0.088,-0.0875,-0.0871,0,0,0,0,0,0,-0.0791,-0.0877,-0.091,-0.0896,-0.0944,-0.1017,-0.1007,-0.1053,-0.1056,-0.1057,-0.1062,-0.1055,-0.1018,-0.1021,-0.1016,-0.0964,-0.0988,-0.0988,-0.0933,-0.0928,-0.0925,-0.0894,-0.0993,0,0,0,0,0,-0.0768,-0.0769,-0.0859,-0.0839,-0.087,-0.0945,-0.0963,-0.0998,-0.1029,-0.1032,-0.1031,-0.1033,-0.1018,-0.0999,-0.0985,-0.0949,-0.0953,-0.0921,-0.0918,-0.0914,-0.0889,-0.0886,-0.0878,-0.0963,-0.0963,-0.0963,0,0,-0.0708,-0.0761,-0.0754,-0.0816,-0.0861,-0.0884,-0.0952,-0.0977,-0.098,-0.1018,-0.0999,-0.1011,-0.1011,-0.0974,-0.0958,-0.0966,-0.0897,-0.0916,-0.0913,-0.0889,-0.0886,-0.0877,-0.0869,-0.0964,-0.0964,-0.0964,0,0,-0.0625,-0.0653,-0.0651,-0.0698,-0.0777,-0.0818,-0.0829,-0.0907,-0.092,-0.0924,-0.0955,-0.095,-0.0932,-0.0922,-0.0916,-0.0889,-0.0881,-0.0892,-0.0831,-0.0829,-0.082,-0.0813,-0.0813,-0.0806,-0.0886,-0.0886,-0.0886,0,-0.0558,-0.058,-0.0646,-0.0678,-0.0708,-0.079,-0.0802,-0.082,-0.0874,-0.0869,-0.09,-0.0904,-0.09,-0.086,-0.0855,-0.087,-0.0878,-0.0836,-0.0819,-0.0811,-0.0805,-0.0807,-0.08,-0.0882,-0.0883,-0.0883,-0.0883,0,-0.0509,-0.0526,-0.0527,-0.0595,-0.0618,-0.0637,-0.0702,-0.0711,-0.0748,-0.0765,-0.0751,-0.078,-0.0783,-0.0783,-0.0802,-0.0758,-0.0782,-0.0813,-0.0815,-0.079,-0.0796,-0.079,-0.0877,-0.0878,-0.0879,-0.088,0,0,-0.0387,-0.0477,-0.0485,-0.0514,-0.0589,-0.0608,-0.0601,-0.0617,-0.0628,-0.0637,-0.064,-0.0615,-0.0649,-0.0649,-0.0686,-0.0677,-0.0645,-0.0719,-0.072,-0.0693,-0.0639,-0.0614,-0.0606,-0.0673,-0.0671,-0.067,-0.0661,0,-0.0344,-0.0381,-0.0433,-0.0439,-0.0467,-0.0531,-0.0526,-0.0537,-0.0564,-0.0577,-0.0577,-0.0582,-0.0593,-0.0621,-0.0603,-0.0648,-0.0626,-0.0644,-0.0689,-0.0689,-0.0648,-0.0597,-0.0543,-0.0526,-0.0656,-0.0655,-0.0654,0,-0.0311,-0.0343,-0.0355,-0.0407,-0.0426,-0.0422,-0.0456,-0.0466,-0.0477,-0.0505,-0.0496,-0.0521,-0.0495,-0.0544,-0.0531,-0.0546,-0.0569,-0.0597,-0.0598,-0.0591,-0.0653,-0.0574,-0.0512,-0.0456,-0.0646,-0.0647,-0.0647,0,-0.0242,-0.0293,-0.0298,-0.032,-0.0379,-0.0377,-0.0394,-0.042,-0.0425,-0.0459,-0.0477,-0.0459,-0.0483,-0.048,-0.0501,-0.0527,-0.0505,-0.056,-0.0547,-0.0547,-0.0514,-0.0513,-0.0374,-0.0534,-0.0534,-0.0534,-0.0534,0,-0.0203,-0.0209,-0.0265,-0.0274,-0.0277,-0.0325,-0.0331,-0.0367,-0.0388,-0.0386,-0.0429,-0.045,-0.047,-0.0462,-0.0479,-0.0471,-0.0477,-0.0505,-0.0528,-0.0488,-0.0485,-0.0448,-0.0517,-0.0534,-0.0534,-0.0534,-0.0534,0,-0.0136,-0.0182,-0.0193,-0.0237,-0.0254,-0.025,-0.0287,-0.029,-0.0333,-0.0349,-0.0348,-0.0408,-0.0423,-0.0421,-0.0445,-0.045,-0.0445,-0.0448,-0.0395,-0.0409,-0.036,-0.0431,-0.0433,-0.0414,-0.0442,-0.0441,-0.044,0,-0.0103,-0.0092,-0.0158,-0.0171,-0.0188,-0.0202,-0.0219,-0.0258,-0.0265,-0.0326,-0.0323,-0.0347,-0.0375,-0.0383,-0.0396,-0.0387,-0.0407,-0.0337,-0.0366,-0.0308,-0.0404,-0.0479,-0.0468,-0.0304,-0.0302,-0.0301,-0.03,0,-0.0003,-0.0031,-0.0056,-0.0102,-0.0118,-0.0135,-0.0152,-0.0154,-0.0207,-0.0231,-0.0269,-0.0287,-0.0333,-0.0317,-0.0307,-0.031,-0.0329,-0.0308,-0.0256,-0.0272,-0.0339,-0.0347,-0.0369,-0.0286,-0.0288,-0.0289,-0.0289,-0.029,0.0071,0.0068,0.0019,-0.0017,-0.004,-0.0052,-0.0065,-0.0089,-0.0101,-0.0131,-0.0179,-0.0182,-0.0172,-0.018,-0.0183,-0.0134,-0.0282,-0.0128,-0.0217,-0.0292,-0.0264,-0.0248,-0.0189,-0.0189,-0.019,-0.0191,-0.0191,0,0.0142,0.0123,0.0111,0.0054,0.0049,0.0008,-0.0014,-0.0028,-0.0056,-0.0043,-0.0061,0.0031,0.0047,0.0055,0.0053,0.0008,-0.004,-0.0022,-0.0086,-0.0077,-0.0035,-0.001,0.0102,0.0102,0.0102,0.0102,0.0102,0.0102,0.0162,0.0175,0.0161,0.0169,0.0119,0.0105,0.0088,0.0065,0.0075,0.0118,0.0187,0.0221,0.0274,0.0199,0.0173,0.0122,0.007,-0.0029,-0.0056,0.0013,-0.0002,-0.0016,0.0004,0.0117,0.0116,-0.0015,-0.0016,-0.0018]},{"header":{"parameterUnit":"m.s-1","parameterCategory":2,"la1":30.2991,"la2":30.254,"lo1":-89.0895,"lo2":-89.0444,"dy":0.0017,"dx":0.0017,"nx":28,"ny":28,"refTime":"2025-11-16T09:00:00:Z","depth":"0","parameterNumber":3,"parameterNumberName":"V-component_of_CURRENTS"},"data":[0,0,0,0,0,0,0,0,0,0,0,0,0,0,0,0,0,0,0,0,0,0,0,0,0,0,0,0,0,0,0,0,0,0,0,0,0,0,0,0,0,0,0,0,0,0,0,0,0,0,0,0,0,0,0,0,0,0,-0.0033,-0.0032,0,-0.0012,-0.0012,-0.0012,-0.0015,-0.0016,-0.0016,-0.0016,-0.0016,-0.0016,-0.0015,0,0,0,0,0,0,0,0,0,0,0,0,0,-0.0006,-0.0007,-0.0033,-0.0032,-0.0032,-0.0012,-0.0012,-0.0012,-0.0015,-0.0016,-0.0016,-0.0017,-0.0016,-0.0016,-0.0015,0,0,0,0,0,0,0,0,0,0,0,0,0,-0.0005,-0.0007,-0.0033,-0.0032,-0.0032,-0.0013,-0.0012,-0.0012,-0.0015,-0.0016,-0.0016,-0.0017,-0.0016,-0.0016,-0.0015,-0.0,0,0,-0.0013,-0.0013,0,0,0,0,0,0,0,0,-0.0005,-0.0006,-0.0032,-0.0032,-0.0031,-0.0017,-0.0002,-0.0009,-0.0015,-0.0021,-0.0016,-0.0017,-0.0018,-0.0017,-0.0011,-0.0,0.0,-0.0013,-0.0013,-0.0013,-0.0013,0,0,0,0,0,0,0,-0.0005,-0.0006,-0.0024,-0.0032,-0.0031,-0.0009,-0.001,-0.0003,-0.0017,-0.0021,-0.0021,-0.0019,-0.0018,-0.0012,-0.0012,0.0,-0.0013,-0.0013,-0.0012,-0.0012,0.0032,0.0033,0,0,0,0,0,0,-0.0011,-0.0007,-0.0025,-0.0024,-0.002,-0.0009,-0.001,-0.0021,-0.0016,-0.0016,-0.0018,-0.0019,-0.0013,-0.0012,-0.0012,-0.0001,-0.0013,-0.0012,-0.0012,0.0031,0.0032,0.0033,0,0,0,0,0,0,-0.0011,-0.0014,-0.0026,-0.0014,-0.0014,-0.001,-0.0021,-0.002,-0.0017,-0.0015,-0.0015,-0.0016,-0.0013,-0.0012,-0.0003,-0.0001,-0.0012,-0.0011,0.003,0.0031,0.0033,0.0024,0,0,0,0,0,0,-0.001,-0.0014,-0.002,-0.0015,-0.0015,-0.0017,-0.0021,-0.0019,-0.0015,-0.0016,-0.0013,-0.0013,-0.0013,-0.0003,-0.0002,-0.0001,-0.0011,0.0029,0.0031,0.0032,0.0023,0.0025,0.0026,0,0,0,0,0,-0.001,-0.002,-0.0021,-0.0023,-0.0026,-0.0017,-0.0015,-0.0012,-0.0014,-0.0012,-0.0006,-0.0013,0.0008,-0.0002,-0.0001,0.0001,0.0028,0.003,0.0032,0.0023,0.0025,0.0026,0,0,0,0,0,0,-0.0008,-0.0021,-0.0022,-0.0035,-0.0026,-0.0018,-0.0017,-0.0011,-0.0004,-0.0008,-0.0004,-0.0004,0.0006,0.001,-0.0001,0.0021,0.0018,0.002,0.001,0.0012,0.0013,0.0008,-0.0011,0,0,0,0,0,-0.0012,-0.0021,-0.0023,-0.0027,-0.0031,-0.0022,-0.0018,-0.0015,-0.0009,-0.0006,0.0002,0.001,0.0017,0.0019,0.0028,0.0038,0.0045,0.0043,0.0045,0.0046,0.0044,0.0068,0.0071,0.0039,0.0039,0.0039,0,0,-0.0005,-0.0016,-0.0017,-0.0026,-0.0025,-0.0024,-0.0022,-0.0018,-0.0013,-0.0007,0.0005,0.0015,0.0022,0.0033,0.0038,0.0035,0.0057,0.0048,0.0049,0.0047,0.0071,0.0074,0.0076,0.0041,0.004,0.004,0,0,-0.0002,-0.0016,-0.0025,-0.0023,-0.0026,-0.0022,-0.0022,-0.0012,-0.001,0.0007,0.0011,0.0028,0.0041,0.0049,0.0052,0.007,0.0066,0.0071,0.007,0.0093,0.0095,0.0098,0.01,0.0103,0.007,0.007,0.007,0,0.0007,-0.0016,-0.0021,-0.003,-0.003,-0.0023,-0.0027,-0.002,-0.0001,0.0001,0.0009,0.004,0.005,0.0057,0.0065,0.0072,0.0076,0.0058,0.0093,0.0096,0.0098,0.0101,0.0104,0.007,0.007,0.007,0.007,0,0.0004,-0.0015,-0.0021,-0.0034,-0.0028,-0.0031,-0.0027,-0.0021,-0.0012,0.0001,0.0018,0.0042,0.0055,0.0067,0.007,0.0089,0.0082,0.0092,0.0084,0.0101,0.0103,0.0106,0.0069,0.0069,0.0069,0.007,0,0,0.0019,-0.0019,-0.0024,-0.0039,-0.0036,-0.0037,-0.0032,-0.0032,-0.0035,-0.0003,0.0,0.0034,0.0047,0.0053,0.0065,0.0091,0.0114,0.0096,0.0097,0.0089,0.0147,0.007,0.0066,0.0125,0.0126,0.0127,0.0138,0,0.0014,-0.0021,-0.003,-0.0045,-0.006,-0.0057,-0.0057,-0.0048,-0.0033,-0.0026,0.0001,0.0018,0.0039,0.0047,0.0074,0.0107,0.0123,0.0109,0.0141,0.0141,0.0063,0.0068,0.0076,0.0079,0.0141,0.0141,0.0142,0,0.001,-0.0017,-0.0043,-0.0076,-0.0083,-0.0081,-0.0088,-0.0089,-0.0076,-0.0062,-0.0036,-0.0014,0.0022,0.0042,0.0101,0.0088,0.0113,0.0143,0.0144,0.0076,0.007,0.0076,0.0083,0.0273,0.0147,0.0146,0.0146,0,0.0012,-0.0028,-0.0057,-0.0062,-0.0087,-0.0096,-0.0107,-0.0095,-0.0104,-0.0079,-0.0071,-0.0028,-0.0013,0.0042,0.0092,0.0101,0.015,0.0171,0.0122,0.0116,0.0131,0.0125,0.0317,0.0208,0.0208,0.0208,0.0208,0,0.0002,-0.0022,-0.0062,-0.0075,-0.0103,-0.0111,-0.0134,-0.013,-0.0131,-0.0139,-0.0093,-0.0091,-0.001,0.0022,0.0078,0.0095,0.0137,0.0115,0.0114,0.0126,0.0119,0.0289,0.0384,0.0209,0.0209,0.0209,0.0209,0,0.0008,-0.0026,-0.0055,-0.0092,-0.0102,-0.0119,-0.0157,-0.0174,-0.0166,-0.0173,-0.0164,-0.0135,-0.0104,-0.004,0.0035,0.0057,0.0173,0.0095,0.0085,0.0081,0.0191,0.0282,0.0341,0.0434,0.0045,0.0044,0.0042,0,0.0003,-0.0006,-0.0055,-0.0077,-0.0095,-0.0131,-0.0156,-0.0178,-0.0194,-0.0204,-0.0209,-0.0195,-0.0192,-0.0135,-0.01,-0.0045,0.0116,0.0006,0.0023,0.0192,0.0297,0.0303,0.0381,0.005,0.0048,0.0047,0.0046,0,0.0016,0.0003,-0.0031,-0.0071,-0.0104,-0.0147,-0.0185,-0.0207,-0.0237,-0.0245,-0.0269,-0.0271,-0.0273,-0.0243,-0.02,-0.0143,0.0124,-0.0022,0.0188,0.0332,0.0323,0.0413,0.004,0.0036,0.0037,0.0038,0.0038,0.0039,0.0033,0.0011,-0.003,-0.0069,-0.0102,-0.0145,-0.0182,-0.0222,-0.0259,-0.0273,-0.0307,-0.0304,-0.0282,-0.0253,-0.0186,0.0016,0.0008,0.0137,0.0237,0.0228,0.0313,-0.0117,-0.0151,-0.0151,-0.0151,-0.0151,-0.0151,0,0.004,0.0007,-0.0025,-0.0079,-0.0104,-0.013,-0.0187,-0.0216,-0.0254,-0.0274,-0.03,-0.0257,-0.0179,-0.0068,0.0129,0.0299,0.035,0.0444,0.0547,0.062,0.0287,0.0287,0.0306,0.0306,0.0306,0.0306,0.0305,0.0305,0.0033,0.0002,-0.0024,-0.0062,-0.0094,-0.0139,-0.0173,-0.0192,-0.0212,-0.0194,-0.0163,-0.0141,0.0112,0.0389,0.0712,0.0753,0.0977,0.0877,0.1027,0.0913,0.0895,0.0879,0.0906,0.1055,0.1055,0.1334,0.1338,0.134]}],[{"header":{"parameterUnit":"m.s-1","parameterCategory":2,"la1":30.2991,"la2":30.254,"lo1":-89.0895,"lo2":-89.0444,"dy":0.0017,"dx":0.0017,"nx":28,"ny":28,"refTime":"2025-11-16T09:00:00:Z","depth":"2","parameterNumber":2,"parameterNumberName":"U-component_of_CURRENTS"},"data":[0,0,0,0,0,0,0,0,0,0,0,0,0,0,0,0,0,0,0,0,0,0,0,0,0,0,0,0,0,0,0,0,0,0,0,0,0,0,0,0,0,0,0,0,0,0,0,0,0,0,0,0,0,0,0,0,0,0,-0.228,-0.2279,0,-0.2234,-0.2233,-0.2232,-0.2187,-0.2187,-0.2186,-0.2186,-0.2109,-0.2107,-0.2105,0,0,0,0,0,0,0,0,0,0,0,0,0,-0.2262,-0.2263,-0.228,-0.2279,-0.2279,-0.2234,-0.2233,-0.2232,-0.2187,-0.2187,-0.2186,-0.2186,-0.2109,-0.2107,-0.2105,0,0,0,0,0,0,0,0,0,0,0,0,0,-0.2245,-0.2263,-0.228,-0.2254,-0.2251,-0.2234,-0.2233,-0.2232,-0.2187,-0.2187,-0.2186,-0.2186,-0.211,-0.2107,-0.2105,-0.2096,0,0,-0.2096,-0.2095,0,0,0,0,0,0,0,0,-0.2246,-0.2245,-0.2258,-0.2256,-0.2253,-0.2219,-0.2199,-0.2186,-0.2187,-0.2208,-0.2186,-0.2186,-0.2145,-0.2139,-0.2127,-0.2093,-0.2089,-0.2096,-0.2094,-0.2093,-0.2092,0,0,0,0,0,0,0,-0.2248,-0.2247,-0.2258,-0.2258,-0.2255,-0.2222,-0.2219,-0.2196,-0.2176,-0.2206,-0.2203,-0.2204,-0.2143,-0.213,-0.2125,-0.2088,-0.2096,-0.2094,-0.2092,-0.2091,-0.2038,-0.2038,0,0,0,0,0,0,-0.2264,-0.2249,-0.226,-0.2257,-0.2252,-0.2223,-0.222,-0.2227,-0.2177,-0.217,-0.2204,-0.2202,-0.2135,-0.2128,-0.2122,-0.2109,-0.2093,-0.2091,-0.2089,-0.2038,-0.2038,-0.2038,0,0,0,0,0,0,-0.2264,-0.2266,-0.2261,-0.2254,-0.2251,-0.2225,-0.2233,-0.2227,-0.2213,-0.2177,-0.2168,-0.2197,-0.2134,-0.2126,-0.2101,-0.2106,-0.209,-0.2087,-0.2038,-0.2038,-0.2038,-0.2084,0,0,0,0,0,0,-0.2264,-0.2266,-0.2271,-0.2255,-0.2253,-0.2255,-0.2233,-0.2226,-0.2216,-0.2212,-0.2168,-0.216,-0.2133,-0.2105,-0.2098,-0.2102,-0.2085,-0.2037,-0.2038,-0.2038,-0.2082,-0.2086,-0.2089,0,0,0,0,0,-0.2264,-0.2278,-0.2272,-0.2273,-0.2263,-0.2255,-0.225,-0.2227,-0.2216,-0.2212,-0.2182,-0.2161,-0.2103,-0.2103,-0.2095,-0.2098,-0.2037,-0.2038,-0.2038,-0.2081,-0.2085,-0.2089,0,0,0,0,0,0,-0.2271,-0.2274,-0.2267,-0.2281,-0.227,-0.2249,-0.2241,-0.2231,-0.2204,-0.2194,-0.2161,-0.2152,-0.2134,-0.2109,-0.2111,-0.2084,-0.2068,-0.2067,-0.2103,-0.2107,-0.211,-0.2117,-0.2083,0,0,0,0,0,-0.2277,-0.2286,-0.2281,-0.2289,-0.2284,-0.2263,-0.2255,-0.2242,-0.222,-0.2207,-0.2179,-0.2149,-0.213,-0.2113,-0.209,-0.2072,-0.2048,-0.207,-0.2074,-0.2077,-0.2077,-0.2058,-0.206,-0.204,-0.204,-0.204,0,0,-0.2279,-0.2284,-0.2287,-0.229,-0.2274,-0.2269,-0.2256,-0.2245,-0.224,-0.2203,-0.2181,-0.2161,-0.213,-0.2112,-0.2102,-0.209,-0.2066,-0.2077,-0.208,-0.2078,-0.2059,-0.2061,-0.2062,-0.204,-0.204,-0.204,0,0,-0.2284,-0.2293,-0.2296,-0.2291,-0.228,-0.2272,-0.2274,-0.2254,-0.2242,-0.2225,-0.2201,-0.2187,-0.2147,-0.2131,-0.2118,-0.2126,-0.2089,-0.2117,-0.2133,-0.2116,-0.2117,-0.2118,-0.2079,-0.2076,-0.2114,-0.2114,-0.2114,0,-0.2283,-0.229,-0.2293,-0.2292,-0.2286,-0.2277,-0.2271,-0.2265,-0.2239,-0.2231,-0.2221,-0.218,-0.2158,-0.2145,-0.2149,-0.2134,-0.2108,-0.2122,-0.2121,-0.2121,-0.2122,-0.2081,-0.2077,-0.2116,-0.2116,-0.2116,-0.2116,0,-0.2285,-0.2288,-0.2288,-0.2285,-0.2283,-0.2277,-0.2274,-0.2268,-0.2257,-0.2247,-0.2233,-0.2209,-0.2182,-0.2181,-0.2165,-0.216,-0.2135,-0.2132,-0.2113,-0.2127,-0.2082,-0.2077,-0.212,-0.2119,-0.2118,-0.2118,0,0,-0.2265,-0.2287,-0.2279,-0.2275,-0.2277,-0.2271,-0.2275,-0.227,-0.2265,-0.2254,-0.2243,-0.223,-0.2219,-0.2204,-0.2189,-0.218,-0.2162,-0.2158,-0.2156,-0.2122,-0.2102,-0.1966,-0.1948,-0.2159,-0.2158,-0.2158,-0.2066,0,-0.2251,-0.2254,-0.227,-0.226,-0.2253,-0.2261,-0.2266,-0.2264,-0.2259,-0.2249,-0.2244,-0.2228,-0.2228,-0.2214,-0.2209,-0.2177,-0.2153,-0.2186,-0.209,-0.2087,-0.1968,-0.1939,-0.1795,-0.169,-0.2061,-0.206,-0.206,0,-0.2218,-0.2231,-0.2222,-0.2241,-0.2238,-0.2237,-0.2233,-0.2239,-0.2242,-0.224,-0.2237,-0.2229,-0.2221,-0.2216,-0.2172,-0.219,-0.2146,-0.2122,-0.2118,-0.1972,-0.1942,-0.1737,-0.1667,-0.2052,-0.2052,-0.2053,-0.2053,0,-0.2158,-0.2183,-0.2176,-0.2178,-0.2204,-0.22,-0.2214,-0.2221,-0.2221,-0.2228,-0.222,-0.222,-0.2196,-0.2175,-0.2123,-0.2146,-0.2057,-0.208,-0.1913,-0.1903,-0.1749,-0.1724,-0.2034,-0.2034,-0.2035,-0.2035,-0.2035,0,-0.2112,-0.2096,-0.2148,-0.2132,-0.213,-0.2162,-0.2152,-0.2169,-0.2186,-0.2173,-0.2205,-0.218,-0.2184,-0.2136,-0.2109,-0.1975,-0.2038,-0.1897,-0.1865,-0.1757,-0.1736,-0.2033,-0.2034,-0.2031,-0.2032,-0.2033,-0.2033,0,-0.2009,-0.2047,-0.2036,-0.2077,-0.2088,-0.2076,-0.2112,-0.2108,-0.2139,-0.2121,-0.2122,-0.213,-0.2061,-0.2038,-0.1976,-0.1916,-0.1836,-0.1771,-0.1628,-0.1579,-0.1701,-0.1706,-0.1583,-0.1577,-0.1572,-0.1568,-0.1565,0,-0.1948,-0.1935,-0.1974,-0.1974,-0.1983,-0.1993,-0.1999,-0.2058,-0.2064,-0.2074,-0.2057,-0.2001,-0.1921,-0.1775,-0.1677,-0.1564,-0.1676,-0.1356,-0.1373,-0.1671,-0.1653,-0.1665,-0.1676,-0.119,-0.1184,-0.1179,-0.1175,0,-0.1833,-0.1849,-0.1853,-0.1864,-0.187,-0.1884,-0.1907,-0.191,-0.1966,-0.1952,-0.1905,-0.1839,-0.1684,-0.1492,-0.1336,-0.1253,-0.137,-0.1245,-0.1584,-0.1322,-0.1292,-0.1278,-0.1303,-0.113,-0.1135,-0.1138,-0.114,-0.1142,-0.174,-0.1728,-0.1748,-0.1748,-0.1761,-0.1761,-0.1736,-0.1767,-0.175,-0.1698,-0.1725,-0.1567,-0.1461,-0.1141,-0.103,-0.0925,-0.1028,-0.0973,-0.0993,-0.1018,-0.0983,-0.0945,-0.0712,-0.0714,-0.0715,-0.0717,-0.0718,0,-0.1643,-0.1642,-0.1635,-0.1639,-0.1618,-0.1654,-0.166,-0.1624,-0.1562,-0.1506,-0.1432,-0.1164,-0.0981,-0.0899,-0.0675,-0.0585,-0.0618,-0.0539,-0.0625,-0.0665,-0.0702,-0.0659,-0.0298,-0.0298,-0.0297,-0.0297,0,0,-0.1592,-0.1566,-0.1575,-0.1508,-0.1491,-0.1439,-0.1417,-0.1363,-0.1318,-0.1138,-0.1013,-0.1004,-0.0913,-0.0679,-0.0556,-0.0428,-0.0561,-0.0366,-0.0693,-0.0841,-0.088,-0.0918,-0.089,0,0,0,0,0]},{"header":{"parameterUnit":"m.s-1","parameterCategory":2,"la1":30.2991,"la2":30.254,"lo1":-89.0895,"lo2":-89.0444,"dy":0.0017,"dx":0.0017,"nx":28,"ny":28,"refTime":"2025-11-16T09:00:00:Z","depth":"2","parameterNumber":3,"parameterNumberName":"V-component_of_CURRENTS"},"data":[0,0,0,0,0,0,0,0,0,0,0,0,0,0,0,0,0,0,0,0,0,0,0,0,0,0,0,0,0,0,0,0,0,0,0,0,0,0,0,0,0,0,0,0,0,0,0,0,0,0,0,0,0,0,0,0,0,0,0.0147,0.0147,0,0.0228,0.0229,0.023,0.0265,0.0265,0.0265,0.0265,0.0366,0.0369,0.0372,0,0,0,0,0,0,0,0,0,0,0,0,0,0.0045,0.0046,0.0146,0.0147,0.0148,0.0228,0.0229,0.023,0.0265,0.0265,0.0265,0.0265,0.0365,0.0369,0.0372,0,0,0,0,0,0,0,0,0,0,0,0,0,0.0104,0.0047,0.0146,0.0175,0.0179,0.0228,0.0229,0.023,0.0265,0.0265,0.0265,0.0265,0.0364,0.0368,0.0372,0.0403,0,0,0.0385,0.0387,0,0,0,0,0,0,0,0,0.0101,0.0108,0.017,0.0173,0.0177,0.0236,0.023,0.0289,0.0266,0.0233,0.0265,0.0265,0.0324,0.0332,0.0348,0.0408,0.0412,0.0386,0.0388,0.039,0.0391,0,0,0,0,0,0,0,0.0096,0.0105,0.0179,0.0171,0.0176,0.0192,0.02,0.0242,0.028,0.0236,0.0238,0.0247,0.0327,0.0344,0.0351,0.0414,0.0386,0.0389,0.0392,0.0394,0.0487,0.0487,0,0,0,0,0,0,0.0085,0.0101,0.0176,0.0181,0.0137,0.0194,0.0203,0.0218,0.0279,0.0288,0.0247,0.0248,0.0337,0.0346,0.0354,0.0359,0.039,0.0394,0.0397,0.0487,0.0487,0.0487,0,0,0,0,0,0,0.0083,0.0091,0.0173,0.0142,0.0154,0.0196,0.0212,0.0219,0.023,0.0287,0.0296,0.0249,0.0337,0.0348,0.0382,0.0365,0.0396,0.04,0.0487,0.0487,0.0487,0.0392,0,0,0,0,0,0,0.008,0.009,0.0091,0.0142,0.0155,0.0191,0.0213,0.0221,0.0236,0.0238,0.0292,0.0301,0.0337,0.0375,0.0386,0.0371,0.0403,0.0487,0.0487,0.0487,0.0396,0.0389,0.0383,0,0,0,0,0,0.0076,0.0075,0.0091,0.01,0.0157,0.019,0.0198,0.0228,0.0235,0.0237,0.0273,0.0299,0.0382,0.0379,0.0391,0.0377,0.0487,0.0487,0.0487,0.0398,0.039,0.0384,0,0,0,0,0,0,0.0024,0.008,0.0098,0.0113,0.0145,0.0196,0.0196,0.0221,0.0251,0.0248,0.0302,0.0315,0.0337,0.0376,0.0371,0.0406,0.0438,0.044,0.0366,0.0359,0.0353,0.0341,0.0407,0,0,0,0,0,0.0015,0.0032,0.0084,0.0092,0.0105,0.0149,0.0164,0.0186,0.0222,0.0234,0.0272,0.0313,0.0349,0.0367,0.0406,0.0427,0.0462,0.0428,0.0421,0.0416,0.0416,0.046,0.0457,0.0486,0.0486,0.0486,0,0,-0.0005,0.0028,0.0035,0.0082,0.0106,0.012,0.0157,0.0172,0.0181,0.0241,0.0256,0.0294,0.0351,0.0371,0.0384,0.0399,0.0421,0.0416,0.041,0.0413,0.0459,0.0456,0.0453,0.0486,0.0486,0.0486,0,0,-0.0041,-0.0009,-0.0008,0.0019,0.0055,0.0086,0.0087,0.0133,0.0149,0.0173,0.0216,0.0245,0.0298,0.0334,0.036,0.0349,0.0389,0.0356,0.0313,0.0355,0.0352,0.0351,0.0366,0.0366,0.0351,0.0351,0.0351,0,-0.0074,-0.0052,-0.0006,0.0002,0.0017,0.0066,0.0067,0.0093,0.0142,0.0159,0.0163,0.0244,0.0282,0.032,0.0306,0.0334,0.0355,0.033,0.0345,0.0344,0.0344,0.0361,0.0362,0.0346,0.0347,0.0347,0.0348,0,-0.0098,-0.0086,-0.0088,-0.0056,-0.0036,-0.0029,0.0017,0.0035,0.0057,0.0091,0.0127,0.0178,0.0228,0.0237,0.0263,0.0282,0.0294,0.033,0.0356,0.0335,0.0354,0.0357,0.034,0.0341,0.0343,0.0344,0,0,-0.0165,-0.0114,-0.0118,-0.0108,-0.0063,-0.005,-0.0035,0.0004,0.0021,0.0053,0.008,0.012,0.0149,0.018,0.022,0.0245,0.0246,0.0272,0.0276,0.0274,0.0313,0.0338,0.0345,0.0278,0.0279,0.028,0.0317,0,-0.0203,-0.0199,-0.016,-0.0164,-0.0158,-0.0105,-0.009,-0.0051,-0.0011,0.0027,0.0078,0.0114,0.0128,0.0145,0.0171,0.0245,0.0255,0.0231,0.0347,0.035,0.0365,0.0351,0.0388,0.0427,0.0321,0.0321,0.0322,0,-0.0243,-0.0229,-0.0237,-0.0201,-0.0195,-0.019,-0.0146,-0.0126,-0.0057,-0.0026,0.0017,0.0069,0.0113,0.0129,0.0214,0.0196,0.0235,0.028,0.0284,0.0347,0.0383,0.0439,0.0438,0.0328,0.0328,0.0327,0.0327,0,-0.0306,-0.0285,-0.0291,-0.0281,-0.0234,-0.023,-0.0209,-0.0148,-0.0123,-0.0059,-0.0028,0.0037,0.0081,0.0139,0.0218,0.0216,0.0315,0.0337,0.0391,0.0392,0.0469,0.0477,0.0383,0.0383,0.0383,0.0382,0.0382,0,-0.0354,-0.0359,-0.0323,-0.0325,-0.0331,-0.0285,-0.028,-0.0239,-0.0178,-0.014,-0.0068,-0.0012,0.0086,0.0161,0.0215,0.0313,0.0313,0.038,0.0409,0.0435,0.0439,0.04,0.0401,0.0384,0.0384,0.0383,0.0383,0,-0.0415,-0.0392,-0.0397,-0.0366,-0.036,-0.0369,-0.0332,-0.0318,-0.0254,-0.0197,-0.0179,-0.0048,0.0053,0.0141,0.0258,0.0321,0.0406,0.0433,0.0441,0.047,0.045,0.0446,0.0502,0.0504,0.0505,0.0506,0.0507,0,-0.0435,-0.0446,-0.044,-0.0452,-0.0442,-0.0442,-0.0436,-0.0373,-0.0342,-0.0209,-0.0176,-0.0058,0.0055,0.0229,0.0384,0.0496,0.0423,0.054,0.0551,0.0442,0.0465,0.0459,0.0454,0.0604,0.0606,0.0607,0.0608,0,-0.0468,-0.0476,-0.0481,-0.0514,-0.0523,-0.0523,-0.05,-0.0476,-0.0381,-0.0294,-0.0154,-0.0048,0.0171,0.0362,0.0505,0.0562,0.0529,0.0569,0.0479,0.0565,0.0541,0.0562,0.0553,0.0619,0.0618,0.0617,0.0617,0.0616,-0.049,-0.0513,-0.0532,-0.0566,-0.0584,-0.0584,-0.0567,-0.0501,-0.0416,-0.0239,-0.014,0.0084,0.0217,0.052,0.0576,0.0658,0.0679,0.0654,0.0649,0.0643,0.0646,0.0625,0.0717,0.0716,0.0716,0.0715,0.0715,0,-0.0498,-0.053,-0.0575,-0.0609,-0.0643,-0.0636,-0.059,-0.0522,-0.0394,-0.0196,-0.0029,0.0166,0.0402,0.0508,0.0725,0.0795,0.078,0.0704,0.068,0.0673,0.0666,0.0666,0.0745,0.0744,0.0743,0.0742,0,0,-0.0501,-0.0546,-0.058,-0.0644,-0.0671,-0.0656,-0.0618,-0.0488,-0.0321,-0.0123,0.008,0.0318,0.0491,0.0577,0.0644,0.0721,0.0656,0.0696,0.0686,0.0647,0.0637,0.0671,0.067,0,0,0,0,0]}],[{"header":{"parameterUnit":"m.s-1","parameterCategory":2,"la1":30.2991,"la2":30.254,"lo1":-89.0895,"lo2":-89.0444,"dy":0.0017,"dx":0.0017,"nx":28,"ny":28,"refTime":"2025-11-16T09:00:00:Z","depth":"4","parameterNumber":2,"parameterNumberName":"U-component_of_CURRENTS"},"data":[0,0,0,0,0,0,0,0,0,0,0,0,0,0,0,0,0,0,0,0,0,0,0,0,0,0,0,0,0,0,0,0,0,0,0,0,0,0,0,0,0,0,0,0,0,0,0,0,0,0,0,0,0,0,0,0,0,0,-0.0873,-0.0874,0,-0.0919,-0.0919,-0.0919,-0.0962,-0.0963,-0.0964,-0.0964,-0.107,-0.1072,-0.1074,0,0,0,0,0,0,0,0,0,0,0,0,0,-0.081,-0.0811,-0.0873,-0.0874,-0.0875,-0.0919,-0.0919,-0.0919,-0.0961,-0.0963,-0.0964,-0.0965,-0.107,-0.1072,-0.1074,0,0,0,0,0,0,0,0,0,0,0,0,0,-0.0841,-0.0811,-0.0873,-0.0905,-0.0909,-0.0919,-0.0919,-0.0919,-0.0961,-0.0963,-0.0964,-0.0965,-0.1069,-0.1072,-0.1075,-0.1064,0,0,-0.1083,-0.1085,0,0,0,0,0,0,0,0,-0.0839,-0.0842,-0.0899,-0.0903,-0.0907,-0.094,-0.0936,-0.0972,-0.0961,-0.0936,-0.0964,-0.0966,-0.1034,-0.104,-0.1038,-0.1069,-0.1073,-0.1084,-0.1085,-0.1087,-0.1087,0,0,0,0,0,0,0,-0.0837,-0.0841,-0.0887,-0.09,-0.0905,-0.0913,-0.0918,-0.0942,-0.0974,-0.0939,-0.0943,-0.0955,-0.1036,-0.1035,-0.1041,-0.1075,-0.1084,-0.1086,-0.1088,-0.1089,-0.1185,-0.1185,0,0,0,0,0,0,-0.0839,-0.0839,-0.0885,-0.0888,-0.0881,-0.0913,-0.0919,-0.0924,-0.0973,-0.0983,-0.0954,-0.0957,-0.1029,-0.1038,-0.1045,-0.1127,-0.1087,-0.1089,-0.1091,-0.1184,-0.1185,-0.1186,0,0,0,0,0,0,-0.0838,-0.0843,-0.0884,-0.0869,-0.0875,-0.0913,-0.0918,-0.0924,-0.0937,-0.0984,-0.0995,-0.0962,-0.1031,-0.1041,-0.1091,-0.1128,-0.1091,-0.1093,-0.1183,-0.1184,-0.1185,-0.1232,0,0,0,0,0,0,-0.0835,-0.0841,-0.0854,-0.0868,-0.0876,-0.0896,-0.0918,-0.0924,-0.0943,-0.0948,-0.0995,-0.1005,-0.1033,-0.1087,-0.1094,-0.1131,-0.1096,-0.1182,-0.1183,-0.1185,-0.1229,-0.1234,-0.1239,0,0,0,0,0,-0.0833,-0.0845,-0.0854,-0.0861,-0.0889,-0.0897,-0.09,-0.093,-0.0943,-0.0945,-0.0991,-0.1005,-0.1102,-0.109,-0.1098,-0.1137,-0.1181,-0.1183,-0.1185,-0.1227,-0.1233,-0.1239,0,0,0,0,0,0,-0.0816,-0.0852,-0.0862,-0.0882,-0.0892,-0.0906,-0.0925,-0.0929,-0.0961,-0.0985,-0.1014,-0.1028,-0.1093,-0.1095,-0.1081,-0.1166,-0.1143,-0.1147,-0.1173,-0.1179,-0.1184,-0.1189,-0.1098,0,0,0,0,0,-0.0819,-0.0845,-0.0861,-0.0877,-0.0888,-0.0902,-0.0913,-0.0931,-0.0959,-0.0974,-0.1007,-0.1051,-0.1101,-0.1124,-0.1166,-0.12,-0.1186,-0.1229,-0.1233,-0.1238,-0.1247,-0.1249,-0.1255,-0.1191,-0.1191,-0.1191,0,0,-0.082,-0.0841,-0.0857,-0.0877,-0.0893,-0.0904,-0.0912,-0.0937,-0.0955,-0.0982,-0.103,-0.1075,-0.1115,-0.1175,-0.1201,-0.1184,-0.1245,-0.124,-0.1244,-0.125,-0.1252,-0.1258,-0.1263,-0.1193,-0.1192,-0.1192,0,0,-0.0824,-0.0849,-0.087,-0.0882,-0.0913,-0.0921,-0.0926,-0.095,-0.0976,-0.1019,-0.1058,-0.1113,-0.1172,-0.1211,-0.1237,-0.1282,-0.1278,-0.1303,-0.1329,-0.1331,-0.1336,-0.1341,-0.1317,-0.1319,-0.1297,-0.1297,-0.1297,0,-0.0826,-0.0848,-0.0873,-0.089,-0.091,-0.0925,-0.0941,-0.096,-0.0999,-0.1022,-0.1046,-0.1151,-0.1188,-0.1256,-0.1293,-0.1295,-0.1291,-0.1307,-0.1338,-0.1342,-0.1346,-0.132,-0.1321,-0.1299,-0.1299,-0.1299,-0.1298,0,-0.0836,-0.0862,-0.0875,-0.0905,-0.0922,-0.0943,-0.0972,-0.0984,-0.1021,-0.1052,-0.1136,-0.1196,-0.1261,-0.1282,-0.1315,-0.1371,-0.1357,-0.135,-0.1323,-0.1355,-0.1325,-0.1326,-0.1303,-0.1302,-0.1301,-0.13,0,0,-0.0824,-0.0875,-0.0882,-0.0893,-0.094,-0.0941,-0.0976,-0.1004,-0.1022,-0.1093,-0.1145,-0.1247,-0.13,-0.1333,-0.1379,-0.1389,-0.1419,-0.1398,-0.1397,-0.1374,-0.1417,-0.1283,-0.1271,-0.1429,-0.143,-0.143,-0.1379,0,-0.0827,-0.085,-0.0888,-0.0909,-0.092,-0.0951,-0.0981,-0.1014,-0.1053,-0.1105,-0.119,-0.1276,-0.1314,-0.1376,-0.1399,-0.1423,-0.1428,-0.1433,-0.139,-0.1388,-0.1265,-0.1269,-0.1433,-0.138,-0.138,-0.138,-0.138,0,-0.0826,-0.0841,-0.0869,-0.0906,-0.0919,-0.0936,-0.0964,-0.1005,-0.1077,-0.1134,-0.1224,-0.1294,-0.1378,-0.1401,-0.1436,-0.1445,-0.1449,-0.1444,-0.1441,-0.1303,-0.1256,-0.1345,-0.1381,-0.1381,-0.1381,-0.1381,-0.1381,0,-0.0783,-0.0826,-0.0846,-0.0861,-0.0909,-0.0924,-0.0955,-0.1009,-0.1063,-0.1168,-0.1206,-0.1317,-0.1388,-0.1409,-0.1421,-0.1446,-0.1417,-0.1435,-0.1304,-0.1294,-0.1411,-0.1407,-0.1446,-0.1447,-0.1447,-0.1447,-0.1447,0,-0.0765,-0.0777,-0.0823,-0.0828,-0.0852,-0.0908,-0.0948,-0.099,-0.1095,-0.1125,-0.1243,-0.1261,-0.1399,-0.1398,-0.141,-0.1338,-0.1402,-0.1305,-0.1273,-0.1429,-0.1427,-0.141,-0.1407,-0.1445,-0.1445,-0.1446,-0.1446,0,-0.0716,-0.0756,-0.0765,-0.0811,-0.0835,-0.0852,-0.0951,-0.0969,-0.1071,-0.1107,-0.1157,-0.126,-0.1235,-0.129,-0.1312,-0.1295,-0.125,-0.1208,-0.1344,-0.1322,-0.1134,-0.1134,-0.107,-0.1065,-0.1061,-0.1057,-0.1054,0,-0.0692,-0.0699,-0.0739,-0.0742,-0.0766,-0.0811,-0.0843,-0.0967,-0.0988,-0.1037,-0.1039,-0.1075,-0.11,-0.1029,-0.1102,-0.1092,-0.1093,-0.1084,-0.1151,-0.112,-0.1097,-0.1103,-0.1109,-0.1047,-0.1046,-0.1045,-0.1044,0,-0.0641,-0.0664,-0.0673,-0.0681,-0.0701,-0.0718,-0.0761,-0.0787,-0.0875,-0.0954,-0.0912,-0.0915,-0.0879,-0.0931,-0.0938,-0.0926,-0.1103,-0.1039,-0.105,-0.1113,-0.1092,-0.1074,-0.1085,-0.1029,-0.1031,-0.1033,-0.1033,0,-0.0609,-0.0594,-0.0613,-0.0615,-0.0623,-0.0598,-0.0641,-0.0651,-0.0719,-0.0786,-0.074,-0.0748,-0.0826,-0.0834,-0.0806,-0.0816,-0.0833,-0.0855,-0.0876,-0.0893,-0.0863,-0.0811,-0.0626,0,0,0,0,0,-0.0572,-0.0553,-0.0541,-0.0523,-0.0514,-0.0518,-0.0569,-0.0616,-0.0677,-0.0624,-0.0705,-0.0649,-0.0644,-0.0681,-0.066,-0.0723,-0.0833,-0.0695,-0.0867,-0.0945,-0.0963,-0.0947,0,0,0,0,0,0,-0.0547,-0.0539,-0.0524,-0.0446,-0.0404,-0.0392,-0.0412,-0.0452,-0.0459,-0.0524,-0.0546,-0.0595,-0.0628,-0.063,-0.0635,-0.0644,-0.0739,-0.0732,-0.073,-0.0936,-0.0951,-0.0965,-0.0955,0,0,0,0,0]},{"header":{"parameterUnit":"m.s-1","parameterCategory":2,"la1":30.2991,"la2":30.254,"lo1":-89.0895,"lo2":-89.0444,"dy":0.0017,"dx":0.0017,"nx":28,"ny":28,"refTime":"2025-11-16T09:00:00:Z","depth":"4","parameterNumber":3,"parameterNumberName":"V-component_of_CURRENTS"},"data":[0,0,0,0,0,0,0,0,0,0,0,0,0,0,0,0,0,0,0,0,0,0,0,0,0,0,0,0,0,0,0,0,0,0,0,0,0,0,0,0,0,0,0,0,0,0,0,0,0,0,0,0,0,0,0,0,0,0,-0.0304,-0.0304,0,-0.0311,-0.0311,-0.0311,-0.0308,-0.0308,-0.0308,-0.0308,-0.0289,-0.0289,-0.0289,0,0,0,0,0,0,0,0,0,0,0,0,0,-0.03,-0.03,-0.0304,-0.0304,-0.0304,-0.0311,-0.0311,-0.0311,-0.0308,-0.0308,-0.0308,-0.0308,-0.029,-0.0289,-0.0289,0,0,0,0,0,0,0,0,0,0,0,0,0,-0.0304,-0.03,-0.0303,-0.0304,-0.0304,-0.0311,-0.0311,-0.0311,-0.0308,-0.0308,-0.0308,-0.0308,-0.029,-0.0289,-0.0289,-0.0289,0,0,-0.0287,-0.0287,0,0,0,0,0,0,0,0,-0.0304,-0.0304,-0.0303,-0.0304,-0.0304,-0.0309,-0.0304,-0.0303,-0.0308,-0.0306,-0.0308,-0.0308,-0.0294,-0.0293,-0.0295,-0.0288,-0.0287,-0.0287,-0.0287,-0.0286,-0.0286,0,0,0,0,0,0,0,-0.0303,-0.0304,-0.0306,-0.0304,-0.0304,-0.0308,-0.0308,-0.0304,-0.03,-0.0306,-0.0306,-0.0308,-0.0294,-0.0295,-0.0294,-0.0287,-0.0287,-0.0286,-0.0286,-0.0286,-0.0301,-0.0301,0,0,0,0,0,0,-0.0303,-0.0303,-0.0306,-0.0306,-0.0304,-0.0308,-0.0309,-0.0307,-0.0301,-0.03,-0.0308,-0.0308,-0.0296,-0.0295,-0.0293,-0.0317,-0.0286,-0.0286,-0.0285,-0.03,-0.0301,-0.0302,0,0,0,0,0,0,-0.0303,-0.0303,-0.0305,-0.0306,-0.0306,-0.0309,-0.0307,-0.0307,-0.0317,-0.0303,-0.0301,-0.0319,-0.0296,-0.0294,-0.03,-0.0315,-0.0286,-0.0285,-0.0299,-0.03,-0.0301,-0.0349,0,0,0,0,0,0,-0.0303,-0.0303,-0.0311,-0.0305,-0.0306,-0.0319,-0.0307,-0.0308,-0.0319,-0.0318,-0.0311,-0.0309,-0.0296,-0.0301,-0.03,-0.0314,-0.0285,-0.0298,-0.03,-0.0301,-0.0347,-0.0352,-0.0356,0,0,0,0,0,-0.0302,-0.0307,-0.0311,-0.0312,-0.0314,-0.032,-0.0321,-0.0321,-0.0319,-0.0329,-0.0324,-0.031,-0.0309,-0.0302,-0.0299,-0.0314,-0.0297,-0.0299,-0.0301,-0.0345,-0.0351,-0.0356,0,0,0,0,0,0,-0.031,-0.0308,-0.0311,-0.0316,-0.0324,-0.0319,-0.0325,-0.0329,-0.0334,-0.033,-0.0319,-0.0317,-0.0327,-0.0315,-0.0308,-0.0322,-0.03,-0.0302,-0.0335,-0.034,-0.0345,-0.0345,-0.0284,0,0,0,0,0,-0.0316,-0.0318,-0.0321,-0.0327,-0.0329,-0.0331,-0.0337,-0.0336,-0.0336,-0.0338,-0.0338,-0.0333,-0.0331,-0.0332,-0.0326,-0.0336,-0.0308,-0.0344,-0.0349,-0.0353,-0.0352,-0.0329,-0.0331,-0.0307,-0.0307,-0.0307,0,0,-0.0322,-0.032,-0.0324,-0.0329,-0.0331,-0.0346,-0.0334,-0.0339,-0.0358,-0.0334,-0.036,-0.035,-0.0337,-0.0347,-0.0351,-0.0341,-0.0344,-0.0355,-0.0359,-0.0355,-0.0331,-0.0333,-0.0335,-0.0308,-0.0308,-0.0308,0,0,-0.0328,-0.0331,-0.0335,-0.0345,-0.035,-0.0356,-0.0363,-0.0368,-0.0376,-0.0396,-0.0383,-0.039,-0.0388,-0.0388,-0.0385,-0.0415,-0.0368,-0.0406,-0.0432,-0.0411,-0.0412,-0.0413,-0.0373,-0.037,-0.041,-0.0411,-0.0411,0,-0.0336,-0.0345,-0.034,-0.035,-0.0367,-0.0366,-0.0386,-0.0395,-0.0407,-0.0419,-0.041,-0.0417,-0.0412,-0.0424,-0.0431,-0.0427,-0.039,-0.0412,-0.0416,-0.0417,-0.0417,-0.0375,-0.0371,-0.0413,-0.0413,-0.0413,-0.0412,0,-0.0346,-0.0363,-0.0365,-0.0383,-0.0401,-0.0415,-0.043,-0.045,-0.0461,-0.0469,-0.0485,-0.0475,-0.0476,-0.0479,-0.0462,-0.0465,-0.0429,-0.0423,-0.0401,-0.0422,-0.0377,-0.0372,-0.0417,-0.0416,-0.0415,-0.0414,0,0,-0.0341,-0.0368,-0.0372,-0.0395,-0.0422,-0.0437,-0.0472,-0.0504,-0.0533,-0.0534,-0.0561,-0.0558,-0.054,-0.0534,-0.0515,-0.05,-0.0473,-0.0458,-0.0455,-0.0415,-0.0397,-0.0323,-0.031,-0.0456,-0.0456,-0.0455,-0.0361,0,-0.0355,-0.0384,-0.0399,-0.0447,-0.0469,-0.0492,-0.0531,-0.0559,-0.058,-0.0606,-0.0587,-0.0603,-0.0563,-0.0564,-0.0538,-0.0498,-0.0463,-0.0498,-0.0384,-0.038,-0.0311,-0.0304,-0.0454,-0.0357,-0.0356,-0.0355,-0.0355,0,-0.0365,-0.0386,-0.0431,-0.0489,-0.0501,-0.0536,-0.0602,-0.0634,-0.0663,-0.0673,-0.0668,-0.0653,-0.0634,-0.0598,-0.0516,-0.0531,-0.0458,-0.0419,-0.0415,-0.0325,-0.0297,-0.0333,-0.0345,-0.0346,-0.0346,-0.0347,-0.0348,0,-0.0367,-0.0414,-0.0456,-0.0474,-0.0535,-0.0569,-0.0605,-0.0654,-0.0686,-0.0712,-0.0725,-0.0696,-0.0675,-0.0599,-0.0502,-0.0505,-0.0396,-0.0398,-0.0258,-0.0251,-0.0325,-0.0325,-0.0322,-0.0322,-0.0322,-0.0323,-0.0323,0,-0.0381,-0.0417,-0.0462,-0.0486,-0.0549,-0.0582,-0.065,-0.0684,-0.0724,-0.0742,-0.0747,-0.073,-0.0669,-0.0598,-0.0509,-0.0355,-0.0392,-0.025,-0.0221,-0.0347,-0.035,-0.0321,-0.0322,-0.0319,-0.032,-0.0321,-0.0321,0,-0.0386,-0.0414,-0.0465,-0.0527,-0.0552,-0.0597,-0.0673,-0.0715,-0.0749,-0.0768,-0.0773,-0.0749,-0.0645,-0.0568,-0.0444,-0.0353,-0.0238,-0.0167,-0.0291,-0.0273,-0.0105,-0.0109,-0.0013,-0.001,-0.0007,-0.0005,-0.0003,0,-0.0393,-0.0415,-0.0487,-0.0524,-0.0558,-0.0622,-0.0669,-0.0722,-0.0748,-0.0754,-0.0745,-0.0679,-0.0633,-0.0411,-0.0327,-0.0158,-0.0123,-0.0068,-0.0097,-0.009,-0.0073,-0.0082,-0.0091,0.0002,0.0003,0.0003,0.0004,0,-0.0404,-0.0428,-0.0469,-0.0532,-0.0589,-0.065,-0.0701,-0.0713,-0.0743,-0.0774,-0.0693,-0.0603,-0.0473,-0.0347,-0.0215,-0.0094,-0.0122,-0.0037,-0.0043,-0.007,-0.0071,-0.0058,-0.007,0.0014,0.0013,0.0012,0.0011,0,-0.0412,-0.0439,-0.0482,-0.054,-0.0608,-0.0649,-0.0682,-0.068,-0.0701,-0.0688,-0.0641,-0.0539,-0.0489,-0.0307,-0.0182,-0.0066,-0.0034,-0.0006,-0.0013,-0.0023,-0.0057,-0.0061,0.0063,0,0,0,0,0,-0.0416,-0.0438,-0.0486,-0.0547,-0.0608,-0.0642,-0.0691,-0.0711,-0.0717,-0.0647,-0.0643,-0.0515,-0.0324,-0.0262,-0.0125,-0.0132,-0.0026,0.0033,-0.0,0.007,0.0058,0.0026,0,0,0,0,0,0,-0.0425,-0.046,-0.0475,-0.0531,-0.0568,-0.0631,-0.0659,-0.0667,-0.0622,-0.0609,-0.0513,-0.0468,-0.0296,-0.0397,-0.0118,-0.0086,-0.0083,0.0108,0.0112,0.0076,0.0066,0.0056,0.0019,0,0,0,0,0]}]]